[[{"header":{"parameterUnit":"m.s-1","parameterCategory":1,"la1":30.2991,"la2":30.254,"lo1":-89.0895,"lo2":-89.0444,"dy":0.0017,"dx":0.0017,"nx":28,"ny":28,"refTime":"2023-07-25T21:00:00:Z","depth":0,"parameterNumber":2,"parameterNumberName":"U-component_of_WINDS"},"data":[0,0,0,0,0,0,0,0,0,0,0,0,0,0,0,0,0,0,0,0,0,0,0,0,0,0,0,0,0,0,0,0,0,0,0,0,0,0,0,0,0,0,0,0,0,0,0,0,0,0,0,0,0,0,0,0,0,0,2.3537,2.3537,0,2.3566,2.3566,2.3566,2.3547,2.3546,2.3546,2.3545,2.3574,2.3575,2.3577,0,0,0,0,0,0,0,0,0,0,0,0,0,2.3468,2.3469,2.3537,2.3537,2.3538,2.3565,2.3566,2.3566,2.3547,2.3546,2.3545,2.3544,2.3573,2.3575,2.3577,0,0,0,0,0,0,0,0,0,0,0,0,0,2.3497,2.347,2.3537,2.3532,2.3532,2.3565,2.3566,2.3566,2.3548,2.3546,2.3545,2.3544,2.3573,2.3575,2.3577,2.3618,0,0,2.3584,2.3585,0,0,0,0,0,0,0,0,2.3496,2.35,2.3532,2.3532,2.3532,2.3552,2.3552,2.3584,2.3548,2.3542,2.3545,2.3543,2.3567,2.357,2.3578,2.3619,2.362,2.3585,2.3586,2.3587,2.3588,0,0,0,0,0,0,0,2.3494,2.3499,2.3548,2.3533,2.3533,2.3528,2.3531,2.3558,2.3561,2.3542,2.3541,2.3544,2.3567,2.3576,2.3579,2.3621,2.3585,2.3587,2.3588,2.3589,2.3698,2.3699,0,0,0,0,0,0,2.3492,2.3497,2.3547,2.3549,2.351,2.3531,2.3534,2.3547,2.3561,2.3562,2.3545,2.3543,2.3573,2.3576,2.358,2.3629,2.3587,2.3589,2.3591,2.3696,2.3698,2.37,0,0,0,0,0,0,2.3491,2.3497,2.3546,2.3523,2.3529,2.3533,2.3548,2.3548,2.3557,2.3564,2.3564,2.3554,2.3572,2.3576,2.3609,2.3629,2.359,2.3592,2.3695,2.3697,2.3699,2.3727,0,0,0,0,0,0,2.3489,2.3496,2.3511,2.3523,2.353,2.3574,2.3549,2.3549,2.3561,2.3558,2.3572,2.3573,2.3571,2.3605,2.3611,2.3632,2.3594,2.3693,2.3696,2.3698,2.3724,2.3729,2.3734,0,0,0,0,0,2.3486,2.3517,2.3512,2.3518,2.3549,2.3576,2.358,2.3577,2.3563,2.3578,2.3583,2.3572,2.3627,2.3609,2.3615,2.3637,2.3691,2.3695,2.3698,2.3721,2.3728,2.3734,0,0,0,0,0,0,2.3507,2.3519,2.3513,2.3549,2.3562,2.3572,2.3591,2.3584,2.3601,2.3598,2.3595,2.3598,2.3632,2.3638,2.3618,2.3678,2.3657,2.3661,2.3672,2.3679,2.3684,2.3682,2.3596,0,0,0,0,0,2.3516,2.3536,2.3546,2.3577,2.3583,2.3587,2.3598,2.3596,2.3608,2.3613,2.362,2.3633,2.3654,2.3667,2.3686,2.3725,2.3728,2.3744,2.3749,2.3753,2.3757,2.3779,2.3787,2.3711,2.3711,2.371,0,0,2.3534,2.3543,2.3556,2.3581,2.3591,2.3613,2.3591,2.3615,2.3631,2.3617,2.3648,2.3654,2.3668,2.3705,2.3721,2.3711,2.3779,2.3757,2.3761,2.3762,2.3784,2.3791,2.3797,2.3713,2.3712,2.3712,0,0,2.3578,2.3587,2.3614,2.3625,2.364,2.3642,2.3649,2.3661,2.3665,2.3696,2.3687,2.3706,2.3741,2.3752,2.3762,2.3813,2.3804,2.382,2.3847,2.3869,2.3874,2.388,2.3898,2.3905,2.3824,2.3824,2.3824,0,2.3599,2.3631,2.3629,2.3654,2.3666,2.3655,2.3683,2.3694,2.3714,2.3722,2.3711,2.3755,2.3764,2.3803,2.3816,2.3824,2.3832,2.3817,2.3874,2.3879,2.3884,2.3902,2.3909,2.3825,2.3825,2.3825,2.3825,0,2.3656,2.3679,2.37,2.372,2.3734,2.3761,2.3763,2.3778,2.3775,2.3779,2.3812,2.3822,2.3844,2.3853,2.385,2.3893,2.3886,2.3874,2.3853,2.3893,2.391,2.3916,2.3828,2.3827,2.3827,2.3826,0,0,2.3712,2.3733,2.3741,2.3751,2.3767,2.3785,2.3812,2.3833,2.3846,2.3861,2.3884,2.3914,2.3904,2.3916,2.3914,2.3934,2.3974,2.392,2.392,2.393,2.4023,2.4031,2.4039,2.3969,2.3971,2.3972,2.4022,0,2.3758,2.3804,2.3804,2.3847,2.3868,2.386,2.3883,2.3897,2.3902,2.3921,2.3926,2.3948,2.3933,2.394,2.3959,2.3965,2.3993,2.3962,2.399,2.3991,2.3986,2.4047,2.4056,2.4102,2.4028,2.4029,2.403,0,2.3816,2.3834,2.3879,2.3894,2.3904,2.3924,2.3945,2.3964,2.3979,2.3981,2.3996,2.3991,2.4019,2.3998,2.4037,2.4016,2.4028,2.4033,2.4035,2.4037,2.4012,2.4051,2.4117,2.4124,2.404,2.4039,2.4039,0,2.3853,2.3888,2.392,2.3929,2.3947,2.3962,2.3971,2.3985,2.3999,2.4017,2.4026,2.4047,2.4058,2.4075,2.4077,2.4062,2.4117,2.4095,2.4119,2.412,2.413,2.4129,2.4199,2.4139,2.4139,2.4139,2.4139,0,2.3903,2.3931,2.3937,2.3956,2.3988,2.3989,2.402,2.4027,2.4041,2.4062,2.4056,2.4076,2.4078,2.4099,2.4101,2.4133,2.4139,2.4141,2.4142,2.4142,2.4141,2.4149,2.4145,2.4141,2.414,2.414,2.414,0,2.3948,2.3954,2.3988,2.4003,2.4008,2.4031,2.4044,2.4063,2.4068,2.4095,2.4102,2.411,2.4135,2.4139,2.4168,2.4169,2.4208,2.4205,2.4202,2.4202,2.4226,2.4223,2.4302,2.4313,2.4246,2.4247,2.4247,0,2.398,2.4001,2.402,2.4034,2.4043,2.4066,2.408,2.4082,2.4097,2.4117,2.4134,2.4158,2.4178,2.4218,2.4226,2.4249,2.4246,2.4272,2.4249,2.4249,2.4246,2.4245,2.4247,2.4276,2.4277,2.4278,2.4278,0,2.4035,2.4037,2.4057,2.4079,2.4097,2.4114,2.413,2.4142,2.4147,2.4164,2.419,2.4205,2.4235,2.4259,2.4282,2.4291,2.4286,2.4286,2.4292,2.4292,2.429,2.4291,2.4214,2.4283,2.4283,2.4282,2.4282,2.4282,2.4074,2.4093,2.4109,2.4133,2.4146,2.4162,2.4181,2.4189,2.4211,2.4235,2.4236,2.4264,2.4281,2.4311,2.4322,2.4344,2.4335,2.4345,2.4347,2.435,2.4352,2.4287,2.4348,2.4348,2.4348,2.4348,2.4348,0,2.4129,2.4139,2.4161,2.4185,2.4204,2.4198,2.4216,2.4232,2.4257,2.4273,2.4293,2.4323,2.4347,2.4359,2.4383,2.4398,2.4396,2.4404,2.4403,2.4405,2.4358,2.435,2.4406,2.4406,2.4406,2.4406,2.4406,2.4406,2.4159,2.4192,2.4196,2.4235,2.4246,2.4273,2.4285,2.43,2.4313,2.4347,2.4367,2.4374,2.4389,2.4414,2.4436,2.4439,2.4448,2.4457,2.4459,2.4414,2.4408,2.4403,2.4395,2.4459,2.446,2.4504,2.4505,2.4505]},{"header":{"parameterUnit":"m.s-1","parameterCategory":1,"la1":30.2991,"la2":30.254,"lo1":-89.0895,"lo2":-89.0444,"dy":0.0017,"dx":0.0017,"nx":28,"ny":28,"refTime":"2023-07-25T21:00:00:Z","depth":0,"parameterNumber":3,"parameterNumberName":"V-component_of_WINDS"},"data":[0,0,0,0,0,0,0,0,0,0,0,0,0,0,0,0,0,0,0,0,0,0,0,0,0,0,0,0,0,0,0,0,0,0,0,0,0,0,0,0,0,0,0,0,0,0,0,0,0,0,0,0,0,0,0,0,0,0,-1.4117,-1.4117,0,-1.4121,-1.4121,-1.4121,-1.4101,-1.41,-1.41,-1.4099,-1.4102,-1.4103,-1.4103,0,0,0,0,0,0,0,0,0,0,0,0,0,-1.4094,-1.4095,-1.4117,-1.4117,-1.4117,-1.4121,-1.4121,-1.4121,-1.4101,-1.41,-1.41,-1.4099,-1.4102,-1.4103,-1.4104,0,0,0,0,0,0,0,0,0,0,0,0,0,-1.4102,-1.4095,-1.4117,-1.4108,-1.4107,-1.4121,-1.4121,-1.4121,-1.4101,-1.41,-1.41,-1.4099,-1.4102,-1.4103,-1.4104,-1.4126,0,0,-1.4106,-1.4107,0,0,0,0,0,0,0,0,-1.4101,-1.4102,-1.4109,-1.4109,-1.4108,-1.411,-1.4114,-1.4123,-1.4101,-1.4103,-1.4099,-1.4098,-1.4105,-1.4106,-1.4108,-1.4126,-1.4126,-1.4106,-1.4107,-1.4107,-1.4108,0,0,0,0,0,0,0,-1.4101,-1.4102,-1.4119,-1.4109,-1.4108,-1.4104,-1.4104,-1.4115,-1.4109,-1.4103,-1.4102,-1.4103,-1.4105,-1.4108,-1.4108,-1.4126,-1.4106,-1.4107,-1.4108,-1.4108,-1.4164,-1.4165,0,0,0,0,0,0,-1.4101,-1.4102,-1.4118,-1.4119,-1.4102,-1.4105,-1.4105,-1.411,-1.4109,-1.4108,-1.4103,-1.4102,-1.4106,-1.4107,-1.4108,-1.4136,-1.4107,-1.4108,-1.4109,-1.4164,-1.4165,-1.4166,0,0,0,0,0,0,-1.4101,-1.4103,-1.4118,-1.411,-1.4111,-1.4106,-1.4112,-1.411,-1.4113,-1.4109,-1.4108,-1.4107,-1.4106,-1.4107,-1.4122,-1.4136,-1.4109,-1.4109,-1.4162,-1.4164,-1.4165,-1.419,0,0,0,0,0,0,-1.41,-1.4103,-1.4111,-1.411,-1.4112,-1.4132,-1.4113,-1.4111,-1.4115,-1.4113,-1.4112,-1.4111,-1.4105,-1.4121,-1.4123,-1.4136,-1.411,-1.4161,-1.4163,-1.4165,-1.4188,-1.4192,-1.4196,0,0,0,0,0,-1.41,-1.4118,-1.4112,-1.4114,-1.4122,-1.4133,-1.4134,-1.4127,-1.4116,-1.4124,-1.4122,-1.4111,-1.4134,-1.4123,-1.4125,-1.4139,-1.416,-1.4163,-1.4165,-1.4186,-1.4191,-1.4196,0,0,0,0,0,0,-1.412,-1.4117,-1.4111,-1.4129,-1.4131,-1.4129,-1.414,-1.4132,-1.4137,-1.4135,-1.4125,-1.4125,-1.4143,-1.4142,-1.413,-1.4161,-1.4145,-1.4148,-1.4161,-1.4166,-1.4169,-1.4169,-1.4111,0,0,0,0,0,-1.4126,-1.4135,-1.4132,-1.4149,-1.415,-1.4145,-1.4149,-1.4144,-1.4146,-1.4146,-1.4145,-1.4147,-1.4155,-1.416,-1.4167,-1.4188,-1.4188,-1.4198,-1.4202,-1.4205,-1.4208,-1.422,-1.4225,-1.4173,-1.4173,-1.4173,0,0,-1.414,-1.414,-1.4145,-1.4153,-1.4154,-1.4164,-1.4146,-1.4156,-1.4164,-1.4148,-1.4163,-1.4162,-1.4164,-1.4183,-1.4191,-1.4182,-1.4223,-1.4208,-1.4211,-1.4212,-1.4223,-1.4228,-1.4233,-1.4174,-1.4174,-1.4174,0,0,-1.417,-1.417,-1.4184,-1.4186,-1.4189,-1.4185,-1.4189,-1.4189,-1.4188,-1.4202,-1.4191,-1.42,-1.4213,-1.4215,-1.4218,-1.4251,-1.4242,-1.4253,-1.4273,-1.4286,-1.429,-1.4293,-1.4306,-1.4311,-1.4256,-1.4256,-1.4256,0,-1.4186,-1.42,-1.4193,-1.4205,-1.4209,-1.4195,-1.421,-1.4212,-1.4217,-1.422,-1.4211,-1.4228,-1.4229,-1.4248,-1.4257,-1.4259,-1.4263,-1.4253,-1.429,-1.4293,-1.4297,-1.4309,-1.4314,-1.4257,-1.4257,-1.4257,-1.4257,0,-1.4221,-1.4231,-1.4243,-1.4248,-1.4253,-1.4267,-1.4261,-1.4268,-1.4262,-1.426,-1.4276,-1.4276,-1.4283,-1.4287,-1.4281,-1.4307,-1.4302,-1.4291,-1.4275,-1.4303,-1.4315,-1.4319,-1.4259,-1.4259,-1.4258,-1.4258,0,0,-1.4263,-1.4265,-1.427,-1.4273,-1.4275,-1.4283,-1.4296,-1.4304,-1.431,-1.4314,-1.4325,-1.4337,-1.4328,-1.4332,-1.4326,-1.4337,-1.4364,-1.4325,-1.4325,-1.4333,-1.4394,-1.4402,-1.4408,-1.4358,-1.4359,-1.436,-1.4394,0,-1.4293,-1.4316,-1.431,-1.4333,-1.4343,-1.4332,-1.4343,-1.4346,-1.4345,-1.4353,-1.4352,-1.4361,-1.4348,-1.435,-1.436,-1.4359,-1.4376,-1.4356,-1.4369,-1.437,-1.437,-1.4413,-1.4422,-1.4454,-1.4398,-1.4399,-1.4399,0,-1.4331,-1.4338,-1.4362,-1.4364,-1.4368,-1.4379,-1.4386,-1.4394,-1.4398,-1.4396,-1.4401,-1.4393,-1.4407,-1.4391,-1.441,-1.4397,-1.4402,-1.4402,-1.4403,-1.4405,-1.4387,-1.4417,-1.4464,-1.4469,-1.4406,-1.4406,-1.4405,0,-1.4361,-1.4375,-1.4392,-1.4395,-1.4397,-1.4406,-1.4407,-1.441,-1.4415,-1.4422,-1.4426,-1.4433,-1.4438,-1.4444,-1.4439,-1.4428,-1.446,-1.4443,-1.446,-1.446,-1.4467,-1.4467,-1.4517,-1.4469,-1.4469,-1.4469,-1.4469,0,-1.4395,-1.4411,-1.4406,-1.4416,-1.4433,-1.4427,-1.4444,-1.4444,-1.4447,-1.4458,-1.4448,-1.4458,-1.4451,-1.4461,-1.4457,-1.4475,-1.4476,-1.4476,-1.4475,-1.4477,-1.4478,-1.4481,-1.4479,-1.4471,-1.447,-1.447,-1.447,0,-1.4431,-1.4428,-1.4446,-1.4448,-1.4449,-1.4462,-1.4463,-1.4473,-1.4471,-1.4485,-1.4488,-1.4485,-1.4497,-1.4492,-1.4504,-1.4502,-1.4524,-1.452,-1.4523,-1.4522,-1.454,-1.4539,-1.4594,-1.4602,-1.4549,-1.4549,-1.4549,0,-1.4454,-1.4466,-1.4469,-1.4476,-1.4479,-1.4489,-1.4495,-1.4489,-1.4496,-1.4502,-1.4512,-1.4522,-1.453,-1.4549,-1.4548,-1.4557,-1.4554,-1.4572,-1.4555,-1.4557,-1.4555,-1.4555,-1.4557,-1.4576,-1.4577,-1.4577,-1.4578,0,-1.4495,-1.4493,-1.4502,-1.4512,-1.4519,-1.4526,-1.4532,-1.4538,-1.4532,-1.4541,-1.4552,-1.4559,-1.4571,-1.4582,-1.4591,-1.4593,-1.4585,-1.4583,-1.4588,-1.4591,-1.4593,-1.4593,-1.4534,-1.4582,-1.4582,-1.4581,-1.4581,-1.4581,-1.4526,-1.4537,-1.4541,-1.4552,-1.4556,-1.4562,-1.4572,-1.4572,-1.4582,-1.4592,-1.4588,-1.4602,-1.4607,-1.4617,-1.4621,-1.4632,-1.4624,-1.4631,-1.4632,-1.4634,-1.4637,-1.459,-1.4633,-1.4633,-1.4633,-1.4633,-1.4633,0,-1.4567,-1.457,-1.458,-1.4589,-1.4598,-1.459,-1.4597,-1.4605,-1.4617,-1.4622,-1.4631,-1.4645,-1.4656,-1.4657,-1.4667,-1.4676,-1.4672,-1.4679,-1.4678,-1.4679,-1.4642,-1.4638,-1.4681,-1.4681,-1.4681,-1.4681,-1.4681,-1.4681,-1.459,-1.4608,-1.4607,-1.4628,-1.463,-1.4644,-1.4649,-1.4654,-1.4659,-1.4675,-1.4685,-1.4685,-1.4689,-1.47,-1.471,-1.4709,-1.4714,-1.4722,-1.4721,-1.4686,-1.4682,-1.4677,-1.4673,-1.4723,-1.4723,-1.4757,-1.4757,-1.4757]}]]